owner,sensor,date,latitude,longitude,vertical_datum,mass_concentration_of_oxygen_in_sea_water,qcFlag 
SCCF RECON,ioos:station:SCCF:13:1,2010-09-01T00:00:00Z,26.5255,-82.0032,2.403,5.41,1111122 
SCCF RECON,ioos:station:SCCF:13:1,2010-09-01T01:00:00Z,26.5255,-82.0032,2.423,5.49,1111122 
SCCF RECON,ioos:station:SCCF:13:1,2010-09-01T02:00:00Z,26.5255,-82.0032,2.419,5.1,1111122 
SCCF RECON,ioos:station:SCCF:13:1,2010-09-01T03:00:00Z,26.5255,-82.0032,2.4,5.35,1111122 
SCCF RECON,ioos:station:SCCF:13:1,2010-09-01T04:00:00Z,26.5255,-82.0032,2.37,5.17,1111122 
SCCF RECON,ioos:station:SCCF:13:1,2010-09-01T05:00:00Z,26.5255,-82.0032,2.39,4.27,1111122 
SCCF RECON,ioos:station:SCCF:13:1,2010-09-01T06:00:00Z,26.5255,-82.0032,2.42,4.29,1111122 
SCCF RECON,ioos:station:SCCF:13:1,2010-09-01T07:00:00Z,26.5255,-82.0032,2.45,4.65,1111122 
SCCF RECON,ioos:station:SCCF:13:1,2010-09-01T08:00:00Z,26.5255,-82.0032,2.48,4.42,1111122 
SCCF RECON,ioos:station:SCCF:13:1,2010-09-01T09:00:00Z,26.5255,-82.0032,2.55,4.78,1111122 
SCCF RECON,ioos:station:SCCF:13:1,2010-09-01T10:00:00Z,26.5255,-82.0032,2.61,4.51,1111122 
SCCF RECON,ioos:station:SCCF:13:1,2010-09-01T11:00:00Z,26.5255,-82.0032,2.65,4.37,1111122 
SCCF RECON,ioos:station:SCCF:13:1,2010-09-01T12:00:00Z,26.5255,-82.0032,2.61,4.0,1111122 
SCCF RECON,ioos:station:SCCF:13:1,2010-09-01T13:00:00Z,26.5255,-82.0032,2.52,3.93,1111122 
SCCF RECON,ioos:station:SCCF:13:1,2010-09-01T14:00:00Z,26.5255,-82.0032,2.398,4.46,1111122 
SCCF RECON,ioos:station:SCCF:13:1,2010-09-01T15:00:00Z,26.5255,-82.0032,2.302,5.32,1111122 
SCCF RECON,ioos:station:SCCF:13:1,2010-09-01T16:00:00Z,26.5255,-82.0032,2.232,5.68,1111122 
SCCF RECON,ioos:station:SCCF:13:1,2010-09-01T17:00:00Z,26.5255,-82.0032,2.148,6.01,1111122 
SCCF RECON,ioos:station:SCCF:13:1,2010-09-01T18:00:00Z,26.5255,-82.0032,2.093,5.95,1111122 
SCCF RECON,ioos:station:SCCF:13:1,2010-09-01T19:00:00Z,26.5255,-82.0032,2.11,5.89,1111122 
SCCF RECON,ioos:station:SCCF:13:1,2010-09-01T20:00:00Z,26.5255,-82.0032,2.17,5.85,1111122 
SCCF RECON,ioos:station:SCCF:13:1,2010-09-01T21:00:00Z,26.5255,-82.0032,2.221,5.72,1111122 
SCCF RECON,ioos:station:SCCF:13:1,2010-09-01T22:00:00Z,26.5255,-82.0032,2.28,5.59,1111122 
SCCF RECON,ioos:station:SCCF:13:1,2010-09-01T23:00:00Z,26.5255,-82.0032,2.32,5.14,1111122 
SCCF RECON,ioos:station:SCCF:13:1,2010-09-02T00:00:00Z,26.5255,-82.0032,2.37,4.65,1111122 
SCCF RECON,ioos:station:SCCF:13:1,2010-09-02T01:00:00Z,26.5255,-82.0032,2.41,5.35,1111122 
SCCF RECON,ioos:station:SCCF:13:1,2010-09-02T02:00:00Z,26.5255,-82.0032,2.429,5.46,1111122 
SCCF RECON,ioos:station:SCCF:13:1,2010-09-02T03:00:00Z,26.5255,-82.0032,2.42,5.32,1111122 
SCCF RECON,ioos:station:SCCF:13:1,2010-09-02T04:00:00Z,26.5255,-82.0032,2.391,5.09,1111122 
SCCF RECON,ioos:station:SCCF:13:1,2010-09-02T05:00:00Z,26.5255,-82.0032,2.41,4.79,1111122 
SCCF RECON,ioos:station:SCCF:13:1,2010-09-02T06:00:00Z,26.5255,-82.0032,2.44,4.53,1111122 
SCCF RECON,ioos:station:SCCF:13:1,2010-09-02T07:00:00Z,26.5255,-82.0032,2.45,4.59,1111122 
SCCF RECON,ioos:station:SCCF:13:1,2010-09-02T08:00:00Z,26.5255,-82.0032,2.51,4.49,1111122 
SCCF RECON,ioos:station:SCCF:13:1,2010-09-02T09:00:00Z,26.5255,-82.0032,2.58,4.61,1111122 
SCCF RECON,ioos:station:SCCF:13:1,2010-09-02T10:00:00Z,26.5255,-82.0032,2.64,4.59,1111122 
SCCF RECON,ioos:station:SCCF:13:1,2010-09-02T11:00:00Z,26.5255,-82.0032,2.7,4.14,1111122 
SCCF RECON,ioos:station:SCCF:13:1,2010-09-02T12:00:00Z,26.5255,-82.0032,2.73,4.03,1111122 
SCCF RECON,ioos:station:SCCF:13:1,2010-09-02T13:00:00Z,26.5255,-82.0032,2.69,3.97,1111122 
SCCF RECON,ioos:station:SCCF:13:1,2010-09-02T14:00:00Z,26.5255,-82.0032,2.61,3.9,1111122 
SCCF RECON,ioos:station:SCCF:13:1,2010-09-02T15:00:00Z,26.5255,-82.0032,2.51,4.16,1111122 
SCCF RECON,ioos:station:SCCF:13:1,2010-09-02T16:00:00Z,26.5255,-82.0032,2.42,4.97,1111122 
SCCF RECON,ioos:station:SCCF:13:1,2010-09-02T17:00:00Z,26.5255,-82.0032,2.34,5.73,1111122 
SCCF RECON,ioos:station:SCCF:13:1,2010-09-02T18:00:00Z,26.5255,-82.0032,2.26,6.07,1111122 
SCCF RECON,ioos:station:SCCF:13:1,2010-09-02T19:00:00Z,26.5255,-82.0032,2.2,6.1,1111122 
SCCF RECON,ioos:station:SCCF:13:1,2010-09-02T20:00:00Z,26.5255,-82.0032,2.19,6.2,1111122 
SCCF RECON,ioos:station:SCCF:13:1,2010-09-02T21:00:00Z,26.5255,-82.0032,2.22,6.11,1111122 
SCCF RECON,ioos:station:SCCF:13:1,2010-09-02T22:00:00Z,26.5255,-82.0032,2.29,5.69,1111122 
SCCF RECON,ioos:station:SCCF:13:1,2010-09-02T23:00:00Z,26.5255,-82.0032,2.36,5.54,1111122 
SCCF RECON,ioos:station:SCCF:13:1,2010-09-03T00:00:00Z,26.5255,-82.0032,2.41,5.28,1111122 
SCCF RECON,ioos:station:SCCF:13:1,2010-09-03T01:00:00Z,26.5255,-82.0032,2.468,4.87,1111122 
SCCF RECON,ioos:station:SCCF:13:1,2010-09-03T02:00:00Z,26.5255,-82.0032,2.52,5.47,1111122 
SCCF RECON,ioos:station:SCCF:13:1,2010-09-03T03:00:00Z,26.5255,-82.0032,2.55,5.58,1111122 
SCCF RECON,ioos:station:SCCF:13:1,2010-09-03T04:00:00Z,26.5255,-82.0032,2.554,5.3,1111122 
SCCF RECON,ioos:station:SCCF:13:1,2010-09-03T05:00:00Z,26.5255,-82.0032,2.54,5.08,1111122 
SCCF RECON,ioos:station:SCCF:13:1,2010-09-03T06:00:00Z,26.5255,-82.0032,2.52,4.95,1111122 
SCCF RECON,ioos:station:SCCF:13:1,2010-09-03T07:00:00Z,26.5255,-82.0032,2.53,4.99,1111122 
SCCF RECON,ioos:station:SCCF:13:1,2010-09-03T08:00:00Z,26.5255,-82.0032,2.53,4.3,1111122 
SCCF RECON,ioos:station:SCCF:13:1,2010-09-03T09:00:00Z,26.5255,-82.0032,2.56,4.28,1111122 
SCCF RECON,ioos:station:SCCF:13:1,2010-09-03T10:00:00Z,26.5255,-82.0032,2.63,4.17,1111122 
SCCF RECON,ioos:station:SCCF:13:1,2010-09-03T11:00:00Z,26.5255,-82.0032,2.68,4.37,1111122 
SCCF RECON,ioos:station:SCCF:13:1,2010-09-03T12:00:00Z,26.5255,-82.0032,2.71,4.36,1111122 
SCCF RECON,ioos:station:SCCF:13:1,2010-09-03T13:00:00Z,26.5255,-82.0032,2.72,4.09,1111122 
SCCF RECON,ioos:station:SCCF:13:1,2010-09-03T14:00:00Z,26.5255,-82.0032,2.72,3.99,1111122 
SCCF RECON,ioos:station:SCCF:13:1,2010-09-03T15:00:00Z,26.5255,-82.0032,2.651,4.22,1111122 
SCCF RECON,ioos:station:SCCF:13:1,2010-09-03T16:00:00Z,26.5255,-82.0032,2.534,4.41,1111122 
SCCF RECON,ioos:station:SCCF:13:1,2010-09-03T17:00:00Z,26.5255,-82.0032,2.421,5.49,1111122 
SCCF RECON,ioos:station:SCCF:13:1,2010-09-03T18:00:00Z,26.5255,-82.0032,2.33,6.29,1111122 
SCCF RECON,ioos:station:SCCF:13:1,2010-09-03T19:00:00Z,26.5255,-82.0032,1.0,-9999.0,1111122 
SCCF RECON,ioos:station:SCCF:13:1,2010-09-03T20:00:00Z,26.5255,-82.0032,2.169,7.11,1111122 
SCCF RECON,ioos:station:SCCF:13:1,2010-09-03T21:00:00Z,26.5255,-82.0032,2.154,7.03,1111122 
SCCF RECON,ioos:station:SCCF:13:1,2010-09-03T22:00:00Z,26.5255,-82.0032,2.209,7.0,1111122 
SCCF RECON,ioos:station:SCCF:13:1,2010-09-03T23:00:00Z,26.5255,-82.0032,2.3,6.82,1111122 
SCCF RECON,ioos:station:SCCF:13:1,2010-09-04T00:00:00Z,26.5255,-82.0032,2.372,6.15,1111122 
SCCF RECON,ioos:station:SCCF:13:1,2010-09-04T01:00:00Z,26.5255,-82.0032,2.43,5.89,1111122 
SCCF RECON,ioos:station:SCCF:13:1,2010-09-04T02:00:00Z,26.5255,-82.0032,2.509,5.27,1111122 
SCCF RECON,ioos:station:SCCF:13:1,2010-09-04T03:00:00Z,26.5255,-82.0032,2.58,5.5,1111122 
SCCF RECON,ioos:station:SCCF:13:1,2010-09-04T04:00:00Z,26.5255,-82.0032,2.609,5.34,1111122 
SCCF RECON,ioos:station:SCCF:13:1,2010-09-04T05:00:00Z,26.5255,-82.0032,2.622,5.49,1111122 
SCCF RECON,ioos:station:SCCF:13:1,2010-09-04T06:00:00Z,26.5255,-82.0032,2.61,4.9,1111122 
SCCF RECON,ioos:station:SCCF:13:1,2010-09-04T07:00:00Z,26.5255,-82.0032,2.56,4.55,1111122 
SCCF RECON,ioos:station:SCCF:13:1,2010-09-04T08:00:00Z,26.5255,-82.0032,2.51,5.02,1111122 
SCCF RECON,ioos:station:SCCF:13:1,2010-09-04T09:00:00Z,26.5255,-82.0032,2.52,4.84,1111122 
SCCF RECON,ioos:station:SCCF:13:1,2010-09-04T10:00:00Z,26.5255,-82.0032,2.62,4.51,1111122 
SCCF RECON,ioos:station:SCCF:13:1,2010-09-04T11:00:00Z,26.5255,-82.0032,2.69,4.07,1111122 
SCCF RECON,ioos:station:SCCF:13:1,2010-09-04T12:00:00Z,26.5255,-82.0032,2.749,4.2,1111122 
SCCF RECON,ioos:station:SCCF:13:1,2010-09-04T13:00:00Z,26.5255,-82.0032,2.776,3.97,1111122 
SCCF RECON,ioos:station:SCCF:13:1,2010-09-04T14:00:00Z,26.5255,-82.0032,2.81,4.31,1111122 
SCCF RECON,ioos:station:SCCF:13:1,2010-09-04T15:00:00Z,26.5255,-82.0032,2.82,4.83,1111122 
SCCF RECON,ioos:station:SCCF:13:1,2010-09-04T16:00:00Z,26.5255,-82.0032,2.76,4.11,1111122 
SCCF RECON,ioos:station:SCCF:13:1,2010-09-04T17:00:00Z,26.5255,-82.0032,2.65,4.74,1111122 
SCCF RECON,ioos:station:SCCF:13:1,2010-09-04T18:00:00Z,26.5255,-82.0032,2.48,4.86,1111122 
SCCF RECON,ioos:station:SCCF:13:1,2010-09-04T19:00:00Z,26.5255,-82.0032,2.39,5.23,1111122 
SCCF RECON,ioos:station:SCCF:13:1,2010-09-04T20:00:00Z,26.5255,-82.0032,2.319,5.69,1111122 
SCCF RECON,ioos:station:SCCF:13:1,2010-09-04T21:00:00Z,26.5255,-82.0032,2.236,6.5,1111122 
SCCF RECON,ioos:station:SCCF:13:1,2010-09-04T22:00:00Z,26.5255,-82.0032,2.18,6.37,1111122 
SCCF RECON,ioos:station:SCCF:13:1,2010-09-04T23:00:00Z,26.5255,-82.0032,2.21,6.17,1111122 
SCCF RECON,ioos:station:SCCF:13:1,2010-09-05T00:00:00Z,26.5255,-82.0032,2.331,6.52,1111122 
SCCF RECON,ioos:station:SCCF:13:1,2010-09-05T01:00:00Z,26.5255,-82.0032,2.42,5.64,1111122 
SCCF RECON,ioos:station:SCCF:13:1,2010-09-05T02:00:00Z,26.5255,-82.0032,2.49,5.17,1111122 
SCCF RECON,ioos:station:SCCF:13:1,2010-09-05T03:00:00Z,26.5255,-82.0032,2.55,4.86,1111122 
SCCF RECON,ioos:station:SCCF:13:1,2010-09-05T04:00:00Z,26.5255,-82.0032,2.6,4.61,1111122 
SCCF RECON,ioos:station:SCCF:13:1,2010-09-05T05:00:00Z,26.5255,-82.0032,2.619,4.67,1111122 
SCCF RECON,ioos:station:SCCF:13:1,2010-09-05T06:00:00Z,26.5255,-82.0032,2.6,4.83,1111122 
SCCF RECON,ioos:station:SCCF:13:1,2010-09-05T07:00:00Z,26.5255,-82.0032,2.55,4.18,1111122 
SCCF RECON,ioos:station:SCCF:13:1,2010-09-05T08:00:00Z,26.5255,-82.0032,2.481,4.76,1111122 
SCCF RECON,ioos:station:SCCF:13:1,2010-09-05T09:00:00Z,26.5255,-82.0032,2.43,4.33,1111122 
SCCF RECON,ioos:station:SCCF:13:1,2010-09-05T10:00:00Z,26.5255,-82.0032,2.45,4.44,1111122 
SCCF RECON,ioos:station:SCCF:13:1,2010-09-05T11:00:00Z,26.5255,-82.0032,2.54,3.97,1111122 
SCCF RECON,ioos:station:SCCF:13:1,2010-09-05T12:00:00Z,26.5255,-82.0032,2.66,3.68,1111122 
SCCF RECON,ioos:station:SCCF:13:1,2010-09-05T13:00:00Z,26.5255,-82.0032,2.73,4.19,1111122 
SCCF RECON,ioos:station:SCCF:13:1,2010-09-05T14:00:00Z,26.5255,-82.0032,2.75,4.43,1111122 
SCCF RECON,ioos:station:SCCF:13:1,2010-09-05T15:00:00Z,26.5255,-82.0032,2.81,4.32,1111122 
SCCF RECON,ioos:station:SCCF:13:1,2010-09-05T16:00:00Z,26.5255,-82.0032,2.83,4.68,1111122 
SCCF RECON,ioos:station:SCCF:13:1,2010-09-05T17:00:00Z,26.5255,-82.0032,2.742,4.82,1111122 
SCCF RECON,ioos:station:SCCF:13:1,2010-09-05T18:00:00Z,26.5255,-82.0032,2.613,4.64,1111122 
SCCF RECON,ioos:station:SCCF:13:1,2010-09-05T19:00:00Z,26.5255,-82.0032,2.503,4.63,1111122 
SCCF RECON,ioos:station:SCCF:13:1,2010-09-05T20:00:00Z,26.5255,-82.0032,2.406,5.35,1111122 
SCCF RECON,ioos:station:SCCF:13:1,2010-09-05T21:00:00Z,26.5255,-82.0032,2.309,6.21,1111122 
SCCF RECON,ioos:station:SCCF:13:1,2010-09-05T22:00:00Z,26.5255,-82.0032,2.216,6.51,1111122 
SCCF RECON,ioos:station:SCCF:13:1,2010-09-05T23:00:00Z,26.5255,-82.0032,2.17,6.05,1111122 
SCCF RECON,ioos:station:SCCF:13:1,2010-09-06T00:00:00Z,26.5255,-82.0032,2.207,5.88,1111122 
SCCF RECON,ioos:station:SCCF:13:1,2010-09-06T01:00:00Z,26.5255,-82.0032,2.33,5.78,1111122 
SCCF RECON,ioos:station:SCCF:13:1,2010-09-06T02:00:00Z,26.5255,-82.0032,2.43,5.39,1111122 
SCCF RECON,ioos:station:SCCF:13:1,2010-09-06T03:00:00Z,26.5255,-82.0032,2.52,4.57,1111122 
SCCF RECON,ioos:station:SCCF:13:1,2010-09-06T04:00:00Z,26.5255,-82.0032,2.588,4.34,1111122 
SCCF RECON,ioos:station:SCCF:13:1,2010-09-06T05:00:00Z,26.5255,-82.0032,2.62,4.22,1111122 
SCCF RECON,ioos:station:SCCF:13:1,2010-09-06T06:00:00Z,26.5255,-82.0032,2.59,4.27,1111122 
SCCF RECON,ioos:station:SCCF:13:1,2010-09-06T07:00:00Z,26.5255,-82.0032,2.54,4.09,1111122 
SCCF RECON,ioos:station:SCCF:13:1,2010-09-06T08:00:00Z,26.5255,-82.0032,2.49,4.05,1111122 
SCCF RECON,ioos:station:SCCF:13:1,2010-09-06T09:00:00Z,26.5255,-82.0032,2.41,3.96,1111122 
SCCF RECON,ioos:station:SCCF:13:1,2010-09-06T10:00:00Z,26.5255,-82.0032,2.42,3.68,1111122 
SCCF RECON,ioos:station:SCCF:13:1,2010-09-06T11:00:00Z,26.5255,-82.0032,2.43,4.28,1111122 
SCCF RECON,ioos:station:SCCF:13:1,2010-09-06T12:00:00Z,26.5255,-82.0032,2.55,3.43,1111122 
SCCF RECON,ioos:station:SCCF:13:1,2010-09-06T13:00:00Z,26.5255,-82.0032,2.691,3.6,1111122 
SCCF RECON,ioos:station:SCCF:13:1,2010-09-06T14:00:00Z,26.5255,-82.0032,2.772,4.11,1111122 
SCCF RECON,ioos:station:SCCF:13:1,2010-09-06T15:00:00Z,26.5255,-82.0032,2.854,4.23,1111122 
SCCF RECON,ioos:station:SCCF:13:1,2010-09-06T16:00:00Z,26.5255,-82.0032,2.92,4.34,1111122 
SCCF RECON,ioos:station:SCCF:13:1,2010-09-06T17:00:00Z,26.5255,-82.0032,2.921,4.68,1111122 
SCCF RECON,ioos:station:SCCF:13:1,2010-09-06T18:00:00Z,26.5255,-82.0032,2.84,4.67,1111122 
SCCF RECON,ioos:station:SCCF:13:1,2010-09-06T19:00:00Z,26.5255,-82.0032,2.69,4.63,1111122 
SCCF RECON,ioos:station:SCCF:13:1,2010-09-06T20:00:00Z,26.5255,-82.0032,2.558,4.66,1111122 
SCCF RECON,ioos:station:SCCF:13:1,2010-09-06T21:00:00Z,26.5255,-82.0032,2.455,4.85,1111122 
SCCF RECON,ioos:station:SCCF:13:1,2010-09-06T22:00:00Z,26.5255,-82.0032,2.367,5.43,1111122 
SCCF RECON,ioos:station:SCCF:13:1,2010-09-06T23:00:00Z,26.5255,-82.0032,2.325,5.59,1111122 
SCCF RECON,ioos:station:SCCF:13:1,2010-09-07T00:00:00Z,26.5255,-82.0032,2.284,5.22,1111122 
SCCF RECON,ioos:station:SCCF:13:1,2010-09-07T01:00:00Z,26.5255,-82.0032,2.36,5.25,1111122 
SCCF RECON,ioos:station:SCCF:13:1,2010-09-07T02:00:00Z,26.5255,-82.0032,2.5,5.08,1111122 
SCCF RECON,ioos:station:SCCF:13:1,2010-09-07T03:00:00Z,26.5255,-82.0032,2.57,4.34,1111122 
SCCF RECON,ioos:station:SCCF:13:1,2010-09-07T04:00:00Z,26.5255,-82.0032,2.63,4.06,1111122 
SCCF RECON,ioos:station:SCCF:13:1,2010-09-07T05:00:00Z,26.5255,-82.0032,2.687,4.01,1111122 
SCCF RECON,ioos:station:SCCF:13:1,2010-09-07T06:00:00Z,26.5255,-82.0032,2.696,3.88,1111122 
SCCF RECON,ioos:station:SCCF:13:1,2010-09-07T07:00:00Z,26.5255,-82.0032,2.656,3.99,1111122 
SCCF RECON,ioos:station:SCCF:13:1,2010-09-07T08:00:00Z,26.5255,-82.0032,2.57,3.89,1111122 
SCCF RECON,ioos:station:SCCF:13:1,2010-09-07T09:00:00Z,26.5255,-82.0032,2.48,4.12,1111122 
SCCF RECON,ioos:station:SCCF:13:1,2010-09-07T10:00:00Z,26.5255,-82.0032,2.39,4.48,1111122 
SCCF RECON,ioos:station:SCCF:13:1,2010-09-07T11:00:00Z,26.5255,-82.0032,2.36,4.54,1111122 
SCCF RECON,ioos:station:SCCF:13:1,2010-09-07T12:00:00Z,26.5255,-82.0032,2.4,4.68,1111122 
SCCF RECON,ioos:station:SCCF:13:1,2010-09-07T13:00:00Z,26.5255,-82.0032,2.53,4.37,1111122 
SCCF RECON,ioos:station:SCCF:13:1,2010-09-07T14:00:00Z,26.5255,-82.0032,2.667,3.48,1111122 
SCCF RECON,ioos:station:SCCF:13:1,2010-09-07T15:00:00Z,26.5255,-82.0032,2.78,3.72,1111122 
SCCF RECON,ioos:station:SCCF:13:1,2010-09-07T16:00:00Z,26.5255,-82.0032,2.844,4.28,1111122 
SCCF RECON,ioos:station:SCCF:13:1,2010-09-07T17:00:00Z,26.5255,-82.0032,2.895,4.48,1111122 
SCCF RECON,ioos:station:SCCF:13:1,2010-09-07T18:00:00Z,26.5255,-82.0032,2.907,4.77,1111122 
SCCF RECON,ioos:station:SCCF:13:1,2010-09-07T19:00:00Z,26.5255,-82.0032,2.82,4.88,1111122 
SCCF RECON,ioos:station:SCCF:13:1,2010-09-07T20:00:00Z,26.5255,-82.0032,2.69,4.67,1111122 
SCCF RECON,ioos:station:SCCF:13:1,2010-09-07T21:00:00Z,26.5255,-82.0032,2.53,4.61,1111122 
SCCF RECON,ioos:station:SCCF:13:1,2010-09-07T22:00:00Z,26.5255,-82.0032,2.431,5.19,1111122 
SCCF RECON,ioos:station:SCCF:13:1,2010-09-07T23:00:00Z,26.5255,-82.0032,2.355,5.29,1111122 
SCCF RECON,ioos:station:SCCF:13:1,2010-09-08T00:00:00Z,26.5255,-82.0032,2.28,5.03,1111122 
SCCF RECON,ioos:station:SCCF:13:1,2010-09-08T01:00:00Z,26.5255,-82.0032,2.28,4.81,1111122 
SCCF RECON,ioos:station:SCCF:13:1,2010-09-08T02:00:00Z,26.5255,-82.0032,2.46,4.69,1111122 
SCCF RECON,ioos:station:SCCF:13:1,2010-09-08T03:00:00Z,26.5255,-82.0032,2.57,4.07,1111122 
SCCF RECON,ioos:station:SCCF:13:1,2010-09-08T04:00:00Z,26.5255,-82.0032,2.64,3.74,1111122 
SCCF RECON,ioos:station:SCCF:13:1,2010-09-08T05:00:00Z,26.5255,-82.0032,2.71,3.71,1111122 
SCCF RECON,ioos:station:SCCF:13:1,2010-09-08T06:00:00Z,26.5255,-82.0032,2.72,3.61,1111122 
SCCF RECON,ioos:station:SCCF:13:1,2010-09-08T07:00:00Z,26.5255,-82.0032,2.66,3.58,1111122 
SCCF RECON,ioos:station:SCCF:13:1,2010-09-08T08:00:00Z,26.5255,-82.0032,2.54,3.81,1111122 
SCCF RECON,ioos:station:SCCF:13:1,2010-09-08T09:00:00Z,26.5255,-82.0032,2.43,3.88,1111122 
SCCF RECON,ioos:station:SCCF:13:1,2010-09-08T10:00:00Z,26.5255,-82.0032,2.336,4.48,1111122 
SCCF RECON,ioos:station:SCCF:13:1,2010-09-08T11:00:00Z,26.5255,-82.0032,2.27,4.39,1111122 
SCCF RECON,ioos:station:SCCF:13:1,2010-09-08T12:00:00Z,26.5255,-82.0032,2.227,4.6,1111122 
SCCF RECON,ioos:station:SCCF:13:1,2010-09-08T13:00:00Z,26.5255,-82.0032,2.27,4.6,1111122 
SCCF RECON,ioos:station:SCCF:13:1,2010-09-08T14:00:00Z,26.5255,-82.0032,2.45,4.37,1111122 
SCCF RECON,ioos:station:SCCF:13:1,2010-09-08T15:00:00Z,26.5255,-82.0032,2.59,3.61,1111122 
SCCF RECON,ioos:station:SCCF:13:1,2010-09-08T16:00:00Z,26.5255,-82.0032,2.7,3.62,1111122 
SCCF RECON,ioos:station:SCCF:13:1,2010-09-08T17:00:00Z,26.5255,-82.0032,2.783,4.22,1111122 
SCCF RECON,ioos:station:SCCF:13:1,2010-09-08T18:00:00Z,26.5255,-82.0032,2.831,4.56,1111122 
SCCF RECON,ioos:station:SCCF:13:1,2010-09-08T19:00:00Z,26.5255,-82.0032,2.8,4.67,1111122 
SCCF RECON,ioos:station:SCCF:13:1,2010-09-08T20:00:00Z,26.5255,-82.0032,2.71,4.3,1111122 
SCCF RECON,ioos:station:SCCF:13:1,2010-09-08T21:00:00Z,26.5255,-82.0032,2.596,4.5,1111122 
SCCF RECON,ioos:station:SCCF:13:1,2010-09-08T22:00:00Z,26.5255,-82.0032,2.494,4.48,1111122 
SCCF RECON,ioos:station:SCCF:13:1,2010-09-08T23:00:00Z,26.5255,-82.0032,2.4,4.56,1111122 
SCCF RECON,ioos:station:SCCF:13:1,2010-09-09T00:00:00Z,26.5255,-82.0032,2.337,4.61,1111122 
SCCF RECON,ioos:station:SCCF:13:1,2010-09-09T01:00:00Z,26.5255,-82.0032,2.313,4.66,1111122 
SCCF RECON,ioos:station:SCCF:13:1,2010-09-09T02:00:00Z,26.5255,-82.0032,2.438,4.61,1111122 
SCCF RECON,ioos:station:SCCF:13:1,2010-09-09T03:00:00Z,26.5255,-82.0032,2.57,4.1,1111122 
SCCF RECON,ioos:station:SCCF:13:1,2010-09-09T04:00:00Z,26.5255,-82.0032,2.66,3.9,1111122 
SCCF RECON,ioos:station:SCCF:13:1,2010-09-09T05:00:00Z,26.5255,-82.0032,2.73,3.44,1111122 
SCCF RECON,ioos:station:SCCF:13:1,2010-09-09T06:00:00Z,26.5255,-82.0032,2.77,3.93,1111122 
SCCF RECON,ioos:station:SCCF:13:1,2010-09-09T07:00:00Z,26.5255,-82.0032,2.771,4.12,1111122 
SCCF RECON,ioos:station:SCCF:13:1,2010-09-09T08:00:00Z,26.5255,-82.0032,2.68,3.89,1111122 
SCCF RECON,ioos:station:SCCF:13:1,2010-09-09T09:00:00Z,26.5255,-82.0032,2.57,3.99,1111122 
SCCF RECON,ioos:station:SCCF:13:1,2010-09-09T10:00:00Z,26.5255,-82.0032,2.45,3.98,1111122 
SCCF RECON,ioos:station:SCCF:13:1,2010-09-09T11:00:00Z,26.5255,-82.0032,2.36,4.33,1111122 
SCCF RECON,ioos:station:SCCF:13:1,2010-09-09T12:00:00Z,26.5255,-82.0032,2.281,4.3,1111122 
SCCF RECON,ioos:station:SCCF:13:1,2010-09-09T13:00:00Z,26.5255,-82.0032,2.24,4.31,1111122 
SCCF RECON,ioos:station:SCCF:13:1,2010-09-09T14:00:00Z,26.5255,-82.0032,2.31,4.29,1111122 
SCCF RECON,ioos:station:SCCF:13:1,2010-09-09T15:00:00Z,26.5255,-82.0032,2.51,4.01,1111122 
SCCF RECON,ioos:station:SCCF:13:1,2010-09-09T16:00:00Z,26.5255,-82.0032,2.62,3.58,1111122 
SCCF RECON,ioos:station:SCCF:13:1,2010-09-09T17:00:00Z,26.5255,-82.0032,2.7,3.59,1111122 
SCCF RECON,ioos:station:SCCF:13:1,2010-09-09T18:00:00Z,26.5255,-82.0032,2.76,4.24,1111122 
SCCF RECON,ioos:station:SCCF:13:1,2010-09-09T19:00:00Z,26.5255,-82.0032,2.8,4.64,1111122 
SCCF RECON,ioos:station:SCCF:13:1,2010-09-09T20:00:00Z,26.5255,-82.0032,2.79,4.95,1111122 
SCCF RECON,ioos:station:SCCF:13:1,2010-09-09T21:00:00Z,26.5255,-82.0032,2.68,4.78,1111122 
SCCF RECON,ioos:station:SCCF:13:1,2010-09-09T22:00:00Z,26.5255,-82.0032,2.55,4.9,1111122 
SCCF RECON,ioos:station:SCCF:13:1,2010-09-09T23:00:00Z,26.5255,-82.0032,2.47,4.69,1111122 
SCCF RECON,ioos:station:SCCF:13:1,2010-09-10T00:00:00Z,26.5255,-82.0032,2.378,4.7,1111122 
SCCF RECON,ioos:station:SCCF:13:1,2010-09-10T01:00:00Z,26.5255,-82.0032,2.317,4.63,1111122 
SCCF RECON,ioos:station:SCCF:13:1,2010-09-10T02:00:00Z,26.5255,-82.0032,2.333,4.46,1111122 
SCCF RECON,ioos:station:SCCF:13:1,2010-09-10T03:00:00Z,26.5255,-82.0032,2.5,4.25,1111122 
SCCF RECON,ioos:station:SCCF:13:1,2010-09-10T04:00:00Z,26.5255,-82.0032,2.65,3.47,1111122 
SCCF RECON,ioos:station:SCCF:13:1,2010-09-10T05:00:00Z,26.5255,-82.0032,2.72,3.51,1111122 
SCCF RECON,ioos:station:SCCF:13:1,2010-09-10T06:00:00Z,26.5255,-82.0032,2.77,3.82,1111122 
SCCF RECON,ioos:station:SCCF:13:1,2010-09-10T07:00:00Z,26.5255,-82.0032,2.792,4.16,1111122 
SCCF RECON,ioos:station:SCCF:13:1,2010-09-10T08:00:00Z,26.5255,-82.0032,2.77,4.24,1111122 
SCCF RECON,ioos:station:SCCF:13:1,2010-09-10T09:00:00Z,26.5255,-82.0032,2.66,4.07,1111122 
SCCF RECON,ioos:station:SCCF:13:1,2010-09-10T10:00:00Z,26.5255,-82.0032,2.52,4.09,1111122 
SCCF RECON,ioos:station:SCCF:13:1,2010-09-10T11:00:00Z,26.5255,-82.0032,2.429,3.95,1111122 
SCCF RECON,ioos:station:SCCF:13:1,2010-09-10T12:00:00Z,26.5255,-82.0032,2.341,4.08,1111122 
SCCF RECON,ioos:station:SCCF:13:1,2010-09-10T13:00:00Z,26.5255,-82.0032,2.26,4.0,1111122 
SCCF RECON,ioos:station:SCCF:13:1,2010-09-10T14:00:00Z,26.5255,-82.0032,2.22,4.02,1111122 
SCCF RECON,ioos:station:SCCF:13:1,2010-09-10T15:00:00Z,26.5255,-82.0032,2.32,4.08,1111122 
SCCF RECON,ioos:station:SCCF:13:1,2010-09-10T16:00:00Z,26.5255,-82.0032,2.493,3.84,1111122 
SCCF RECON,ioos:station:SCCF:13:1,2010-09-10T17:00:00Z,26.5255,-82.0032,2.58,3.73,1111122 
SCCF RECON,ioos:station:SCCF:13:1,2010-09-10T18:00:00Z,26.5255,-82.0032,2.643,3.62,1111122 
SCCF RECON,ioos:station:SCCF:13:1,2010-09-10T19:00:00Z,26.5255,-82.0032,2.71,4.46,1111122 
SCCF RECON,ioos:station:SCCF:13:1,2010-09-10T20:00:00Z,26.5255,-82.0032,2.731,4.64,1111122 
SCCF RECON,ioos:station:SCCF:13:1,2010-09-10T21:00:00Z,26.5255,-82.0032,2.68,4.76,1111122 
SCCF RECON,ioos:station:SCCF:13:1,2010-09-10T22:00:00Z,26.5255,-82.0032,2.6,4.73,1111122 
SCCF RECON,ioos:station:SCCF:13:1,2010-09-10T23:00:00Z,26.5255,-82.0032,2.49,4.58,1111122 
SCCF RECON,ioos:station:SCCF:13:1,2010-09-11T00:00:00Z,26.5255,-82.0032,2.42,4.36,1111122 
SCCF RECON,ioos:station:SCCF:13:1,2010-09-11T01:00:00Z,26.5255,-82.0032,2.37,4.72,1111122 
SCCF RECON,ioos:station:SCCF:13:1,2010-09-11T02:00:00Z,26.5255,-82.0032,2.329,4.61,1111122 
SCCF RECON,ioos:station:SCCF:13:1,2010-09-11T03:00:00Z,26.5255,-82.0032,2.38,4.39,1111122 
SCCF RECON,ioos:station:SCCF:13:1,2010-09-11T04:00:00Z,26.5255,-82.0032,2.55,3.91,1111122 
SCCF RECON,ioos:station:SCCF:13:1,2010-09-11T05:00:00Z,26.5255,-82.0032,2.656,3.42,1111122 
SCCF RECON,ioos:station:SCCF:13:1,2010-09-11T06:00:00Z,26.5255,-82.0032,2.72,3.42,1111122 
SCCF RECON,ioos:station:SCCF:13:1,2010-09-11T07:00:00Z,26.5255,-82.0032,2.776,3.74,1111122 
SCCF RECON,ioos:station:SCCF:13:1,2010-09-11T08:00:00Z,26.5255,-82.0032,2.789,4.33,1111122 
SCCF RECON,ioos:station:SCCF:13:1,2010-09-11T09:00:00Z,26.5255,-82.0032,2.74,4.3,1111122 
SCCF RECON,ioos:station:SCCF:13:1,2010-09-11T10:00:00Z,26.5255,-82.0032,2.64,4.03,1111122 
SCCF RECON,ioos:station:SCCF:13:1,2010-09-11T11:00:00Z,26.5255,-82.0032,2.497,3.99,1111122 
SCCF RECON,ioos:station:SCCF:13:1,2010-09-11T12:00:00Z,26.5255,-82.0032,2.399,3.97,1111122 
SCCF RECON,ioos:station:SCCF:13:1,2010-09-11T13:00:00Z,26.5255,-82.0032,2.309,4.08,1111122 
SCCF RECON,ioos:station:SCCF:13:1,2010-09-11T14:00:00Z,26.5255,-82.0032,2.223,4.09,1111122 
SCCF RECON,ioos:station:SCCF:13:1,2010-09-11T15:00:00Z,26.5255,-82.0032,2.187,4.11,1111122 
SCCF RECON,ioos:station:SCCF:13:1,2010-09-11T16:00:00Z,26.5255,-82.0032,2.299,4.16,1111122 
SCCF RECON,ioos:station:SCCF:13:1,2010-09-11T17:00:00Z,26.5255,-82.0032,2.45,4.04,1111122 
SCCF RECON,ioos:station:SCCF:13:1,2010-09-11T18:00:00Z,26.5255,-82.0032,2.511,3.98,1111122 
SCCF RECON,ioos:station:SCCF:13:1,2010-09-11T19:00:00Z,26.5255,-82.0032,2.56,3.73,1111122 
SCCF RECON,ioos:station:SCCF:13:1,2010-09-11T20:00:00Z,26.5255,-82.0032,2.61,4.03,1111122 
SCCF RECON,ioos:station:SCCF:13:1,2010-09-11T21:00:00Z,26.5255,-82.0032,2.641,4.57,1111122 